FW5989 Weather Reports


time (UTC)temp
C
wind
direction
speed
KPH
gust
KPH
rain 1hr
cm
rain 24hr
cm
rain mn
cm
humidity
%
barometer
mb
20260507234539 10 298 1.6 8.0 0.00 0.08 0.00 46 1005.9
20260507233037 10 314 1.6 6.4 0.00 0.08 0.00 45 1005.7
20260507231539 10 4 3.2 8.0 0.00 0.08 0.00 44 1005.5
20260507230036 11 336 1.6 11.3 0.00 0.08 0.00 43 1005.1
20260507224533 11 270 3.2 11.3 0.00 0.30 0.00 41 1005.0
20260507223028 12 311 6.4 14.5 0.00 0.30 0.00 41 1004.9
20260507221524 12 274 4.8 12.9 0.00 0.30 0.00 40 1004.8
20260507220024 12 293 3.2 8.0 0.00 0.30 0.00 41 1004.6
20260507214522 13 277 3.2 12.9 0.00 0.36 0.00 40 1004.5
20260507213026 13 320 1.6 17.7 0.00 0.36 0.00 39 1004.4
20260507211516 13 276 4.8 12.9 0.00 0.36 0.00 40 1004.4
20260507210113 13 292 8.0 12.9 0.00 0.36 0.00 40 1004.2
20260507204511 13 262 1.6 12.9 0.00 0.53 0.00 39 1004.0
20260507203009 13 9 3.2 14.5 0.00 0.53 0.00 40 1003.9
20260507201508 13 290 3.2 9.7 0.00 0.53 0.00 39 1003.8
20260507200012 13 271 4.8 17.7 0.00 0.53 0.00 39 1003.8
20260507194504 13 281 8.0 17.7 0.00 0.69 0.00 41 1003.9
20260507193001 13 278 4.8 16.1 0.00 0.69 0.00 40 1004.1
20260507191600 13 301 8.0 16.1 0.00 0.69 0.00 39 1004.2
20260507184552 13 272 3.2 17.7 0.00 0.94 0.00 50 1004.1
20260507183057 13 243 6.4 16.1 0.00 0.94 0.00 45 1004.2
20260507181547 13 320 4.8 16.1 0.00 0.94 0.00 44 1004.3
20260507180050 13 302 3.2 9.7 0.00 0.94 0.00 49 1004.4
20260507174541 12 283 4.8 11.3 0.00 1.04 0.00 50 1004.7
20260507173037 12 238 4.8 14.5 0.00 1.04 0.00 59 1004.7
20260507171535 12 297 4.8 14.5 0.00 1.04 0.00 63 1004.5
20260507170035 13 286 4.8 11.3 0.00 1.04 0.00 60 1004.5
20260507164530 13 279 4.8 11.3 0.00 1.09 0.00 61 1004.6
20260507163027 13 263 1.6 6.4 0.00 1.09 0.00 64 1004.8
20260507161524 13 270 1.6 9.7 0.00 1.09 0.00 61 1005.0
20260507160026 13 224 3.2 9.7 0.00 1.09 0.00 60 1005.0
20260507154522 12 268 1.6 6.4 0.00 1.09 0.00 61 1005.2
20260507153019 12 297 1.6 9.7 0.00 1.09 0.00 63 1005.4
20260507151517 12 238 1.6 14.5 0.00 1.09 0.00 59 1005.4
20260507150114 13 288 4.8 12.9 0.00 1.09 0.00 58 1005.4
20260507144511 12 321 4.8 9.7 0.00 1.09 0.00 60 1005.4
20260507143007 13 297 1.6 9.7 0.00 1.09 0.00 62 1005.5
20260507141502 13 285 1.6 9.7 0.00 1.09 0.00 67 1005.6
20260507140122 12 198 3.2 12.9 0.00 1.09 0.00 69 1005.9
20260507134556 12 305 3.2 11.3 0.00 1.09 0.00 68 1005.9
20260507133050 11 262 3.2 9.7 0.00 1.09 0.00 70 1006.1
20260507131552 11 340 3.2 9.7 0.00 1.09 0.00 71 1006.0
20260507130050 10 291 3.2 9.7 0.00 1.09 0.00 71 1006.1
20260507124543 10 296 1.6 9.7 0.00 1.09 0.00 73 1006.1
20260507123038 10 240 3.2 9.7 0.00 1.09 0.00 74 1006.1
20260507121538 9 264 1.6 8.0 0.00 1.09 0.00 78 1006.2
20260507120025 8 323 4.8 8.0 0.00 1.09 0.00 78 1006.3
20260507114519 8 320 3.2 8.0 0.00 1.09 0.00 79 1006.2
20260507113028 8 302 1.6 9.7 0.00 1.09 0.00 81 1006.4
20260507111518 7 304 0.0 6.4 0.00 1.09 0.00 81 1006.3
20260507110014 7 319 0.0 8.0 0.00 1.09 0.00 81 1006.4
20260507104505 -17 0.0 0.0 0.00 1.09 0.00 1006.5
20260507103100 -17 0.0 0.0 0.00 1.09 0.00 1006.3
20260507101554 -17 0.0 0.0 0.00 1.09 0.00 1006.2
20260507100049 -17 0.0 0.0 0.00 1.09 0.00 1006.1
20260507094543 -17 0.0 0.0 0.00 1.09 0.00 1005.9
20260507093040 -17 0.0 0.0 0.00 1.09 0.00 1005.8
20260507091532 -17 0.0 0.0 0.00 1.09 0.00 1005.6
20260507090129 -17 0.0 0.0 0.00 1.09 0.00 1005.6
20260507084528 -17 0.0 0.0 0.00 1.09 0.00 1005.9
20260507083127 -17 0.0 0.0 0.00 1.09 0.00 1006.1
20260507081518 -17 0.0 0.0 0.00 1.09 0.00 1005.5
20260507080014 -17 0.0 0.0 0.00 1.09 0.00 1005.2
20260507074522 -17 0.0 0.0 0.00 1.09 0.00 1005.9
20260507073002 -17 0.0 0.0 0.00 1.09 0.00 1005.7
20260507071609 -17 0.0 0.0 0.00 1.09 0.00 1005.9
20260507070052 -17 0.0 0.0 0.00 1.09 0.00 1005.5
20260507064552 -17 0.0 0.0 0.00 1.09 0.00 1005.3
20260507063042 -17 0.0 0.0 0.00 1.09 0.00 1004.9
20260507061538 -17 0.0 0.0 0.00 1.09 0.00 1004.7
20260507060031 -17 0.0 0.0 0.00 1.09 0.00 1004.8
20260507054526 -17 0.0 0.0 0.00 1.09 0.00 1004.7
20260507053020 -17 0.0 0.0 0.00 1.09 0.00 1004.6
20260507051516 -17 0.0 0.0 0.00 1.09 0.00 1004.3
20260507050011 -17 0.0 0.0 0.00 1.09 0.00 1004.6
20260507044505 -17 0.0 0.0 0.00 1.09 0.00 1004.8
20260507043001 -17 0.0 0.0 0.00 1.09 0.00 1004.9
20260507041602 -17 0.0 0.0 0.00 1.09 0.00 1004.8
20260507040059 -17 0.0 0.0 0.00 1.09 0.00 1005.1
20260507034556 -17 0.0 0.0 0.00 1.09 1.09 1004.7
20260507033048 -17 0.0 0.0 0.00 1.09 1.09 1004.8
20260507031546 -17 0.0 0.0 0.00 1.09 1.09 1004.4
20260507030048 -17 0.0 0.0 0.00 1.09 1.09 1004.3
20260507024544 -17 0.0 0.0 0.00 1.09 1.09 1003.9
20260507023043 -17 0.0 0.0 0.00 1.09 1.09 1004.3
20260507021545 -17 0.0 0.0 0.00 1.09 1.09 1003.8
20260507020038 -17 0.0 0.0 0.00 1.09 1.09 1004.0
20260507014534 -17 0.0 0.0 0.00 1.09 1.09 1004.0
20260507013035 -17 0.0 0.0 0.00 1.09 1.09 1003.9
20260507011535 -17 0.0 0.0 0.00 1.09 1.09 1004.2
20260507010018 -17 0.0 0.0 0.00 1.09 1.09 1004.0
20260507004517 -17 0.0 0.0 0.03 1.09 1.09 1003.9
20260507003009 -17 150 4.8 14.5 0.03 1.09 1.09 1003.3
20260507001504 13 157 8.0 14.5 0.08 1.09 1.09 98 1003.3
20260507000003 13 158 4.8 14.5 0.08 1.12 1.09 98 1003.3